Location: Melbourne
(37.8170°S, 144.9670°E)
Time: 04:34:34
(UTC+10:00)

Daily predictions for brighter satellites

Satellite Brightness Start Highest point End
(mag) Time Altitude Azimuth Time Altitude Azimuth Time Altitude Azimuth
Cosmos 1980 Rocket 4.2 02:20:08 23° SSE 02:20:08 23° SSE 02:22:09 10° SSE
SL-16 R/B 3.2 02:51:42 43° SE 02:51:42 43° SE 02:55:31 10° SSE
USA 234 3.9 02:44:42 10° ENE 02:51:00 51° SE 02:57:19 10° SW
Okean O Rocket 4.3 03:01:54 13° S 03:01:54 13° S 03:02:22 10° S
CZ-3C R/B 4.2 02:59:27 17° NNE 02:59:27 17° NNE 03:07:03 10° ENE
ADEOS II 3.9 02:56:51 10° NE 03:01:21 29° ESE 03:05:54 10° S
Cosmos 1125 Rocket 4.2 03:06:59 10° S 03:12:10 52° ESE 03:12:35 50° E
Cosmos 2322 Rocket 2.9 03:13:44 47° S 03:13:44 47° S 03:17:56 10° SSE
Cosmos 1809 Rocket 4.4 03:15:40 82° E 03:15:40 82° E 03:21:53 10° S
Lacrosse 4 Rocket 3.9 03:18:45 15° S 03:18:45 15° S 03:19:34 10° S
ATLAS 3B R/B 4.2 03:15:19 18° NNE 03:18:27 26° ENE 03:23:43 10° SE
Cosmos 540 Rocket 3.9 03:20:21 59° E 03:20:21 59° E 03:25:11 10° SSE
CZ-3 R/B 4.5 03:11:46 26° NNW 03:20:11 32° N 03:29:14 10° ENE
Cosmos 371 Rocket 3.9 03:24:26 54° E 03:24:26 54° E 03:28:51 10° SSE
CZ-4B R/B 3.7 03:30:23 51° SW 03:30:23 51° SW 03:34:42 10° SSW
COSMOS 2428 4.5 03:26:00 14° NNE 03:29:42 27° ENE 03:34:28 10° SE
Cosmos 1000 Rocket 4.4 03:28:47 10° S 03:35:09 87° W 03:37:12 46° N
Cosmos 1626 Rocket 4.4 03:32:37 10° S 03:37:03 50° E 03:38:55 30° NE
Cosmos 332 Rocket 4.2 03:38:42 55° S 03:38:42 55° S 03:42:37 10° SSE
Cosmos 2239 Rocket 4.4 03:37:54 57° NNW 03:39:20 85° W 03:45:45 10° S
Cosmos 1455 Rocket 4.3 03:43:46 32° SSW 03:43:46 32° SSW 03:46:16 10° S
COSMOS 2455 4.2 03:39:22 17° NNE 03:43:17 35° ENE 03:48:42 10° SE
Cosmos 972 4.4 03:40:05 10° SSW 03:45:14 77° ESE 03:50:07 10° NNE
Meteor 2-16 Rocket 4.3 03:45:30 48° NNW 03:47:23 85° W 03:53:36 10° S
OAO 3 Rocket 4.2 03:50:59 34° NNE 03:51:05 34° NNE 03:55:33 10° E
Cosmos 1340 4.2 03:47:48 10° S 03:51:25 37° ESE 03:54:59 10° NE
Aureole 1 Rocket 3.7 03:51:40 41° NE 03:52:21 46° ENE 03:56:47 10° SSE
Meteor 2-15 4.3 03:47:07 10° S 03:53:20 79° W 03:58:42 14° N
Cosmos 2263 Rocket 2.0 03:49:12 10° SSW 03:54:54 73° WNW 04:00:30 10° NNE
Atlas Centaur 2 2.9 03:59:09 22° NNE 03:59:09 22° NNE 04:01:03 10° ENE
Cosmos 2219 Rocket 4.3 03:54:11 10° NNE 03:58:39 24° ENE 04:03:08 10° SE
BREEZE M DEB (TANK) 4.5 03:55:49 20° SW 03:59:42 76° SE 04:22:28 10° NE
Cosmos 2123 Rocket 4.0 03:53:25 10° S 03:59:48 82° E 04:06:01 10° N
Cosmos 2360 Rocket 2.1 03:59:19 52° NW 04:00:38 72° WSW 04:06:20 10° SSE
Cosmos 1980 Rocket 4.4 04:01:54 11° SW 04:01:54 11° SW 04:02:52 10° SSW
Cosmos 1602 Rocket 3.5 03:57:09 10° S 04:01:43 85° W 04:03:38 35° N
ADEOS Rocket 2.9 04:02:57 48° WNW 04:03:25 49° W 04:08:48 10° SSW
Meteor 2-14 Rocket 4.5 04:02:53 44° NW 04:04:30 56° W 04:10:38 10° S
EO 1 Del DPAF 4.4 04:02:57 10° SSE 04:06:45 43° E 04:09:49 14° NNE
Okean-O 2.5 04:06:03 41° N 04:07:33 69° W 04:12:03 10° SSW
Abrixas rocket 3.3 04:09:33 36° NE 04:09:33 36° NE 04:11:45 10° NE
SL-16 R/B 2.4 04:06:55 10° S 04:13:10 76° WSW 04:17:35 20° NNW
Meteor 2-15 Rocket 4.4 04:08:07 10° SSW 04:14:14 63° W 04:20:15 10° N
Cosmos 2322 3.8 04:13:49 39° WNW 04:15:44 58° WSW 04:21:26 10° SSE
SEDSat Delta rocket 4.5 04:14:55 24° N 04:15:53 26° NNE 04:19:33 10° ENE
Radarsat Rocket 4.2 04:10:59 10° NNE 04:16:51 73° ESE 04:23:14 10° SSW
UNK 3.8 04:13:57 10° S 04:18:32 55° WSW 04:19:50 40° NW
NOAA 6 4.3 04:15:51 10° NNE 04:21:00 73° ESE 04:26:13 10° S
Cosmos 1666 4.4 04:21:18 10° NNE 04:24:46 35° E 04:28:16 10° SSE
Meteor 1-31 Rocket 2.7 04:21:57 10° N 04:25:55 83° WNW 04:29:58 10° SSW
MTI 4.5 04:23:42 10° SSE 04:27:05 57° E 04:30:12 11° N
CSL-04 DEB 4.3 04:24:43 10° NNE 04:28:52 82° WNW 04:32:57 10° SSW
Cosmos 1726 Rocket 4.4 04:28:53 10° N 04:33:05 51° E 04:37:21 10° SSE
SL-24 R/B 4.3 04:29:43 10° NNE 04:33:31 65° ESE 04:37:48 10° S
USA 234 3.5 04:27:48 10° NNE 04:33:59 45° NW 04:40:15 10° WSW
SL-16 R/B 3.9 04:33:35 16° WSW 04:34:32 16° SW 04:38:01 10° SSW
MOS 1 Rocket 3.6 04:30:17 10° N 04:35:43 66° W 04:41:12 10° SSW
Cosmos 1500 4.0 04:39:04 29° W 04:39:18 29° WSW 04:42:42 10° SSW
Cosmos 372 Rocket 4.4 04:35:45 10° SW 04:40:27 36° W 04:45:06 10° NNW
COS B Rocket 4.5 04:38:36 10° SSW 04:39:21 15° SSW 04:39:21 15° SSW
ADEOS II 2.7 04:36:16 10° NNW 04:40:57 32° W 04:45:42 10° SSW
Cosmos 1975 4.3 04:42:31 21° WSW 04:42:31 21° WSW 04:45:30 10° SSW
Meteor PRIRODA 4.4 04:42:26 29° W 04:42:34 29° W 04:45:51 10° SW
CZ-4B R/B 4.0 04:43:14 10° N 04:46:47 44° W 04:50:30 10° SSW
COBE Rocket 4.0 04:43:06 10° N 04:47:38 49° W 04:52:19 10° SSW
CZ-2C R/B 4.0 04:46:16 10° SSE 04:50:46 67° ENE 04:55:12 10° N
Cosmos 1844 Rocket 3.0 04:45:45 10° SSW 04:51:29 71° ESE 04:57:06 10° NNE
Cosmos 2333 Rocket 2.9 04:47:31 10° N 04:53:00 55° ENE 04:58:35 10° SSE
Cosmos 2228 4.3 04:49:10 10° NNE 04:53:17 45° E 04:57:25 10° SSE
Cosmos 1844 4.4 04:52:23 10° SSW 04:58:11 61° ESE 05:03:55 10° NE
Cosmos 1743 3.5 04:57:55 13° NW 05:00:54 32° WSW 05:04:31 10° SSW
Cosmos 1825 Rocket 3.7 04:56:55 10° SSW 05:01:24 57° W 05:05:47 10° N
Ariane Rocket 3.0 05:00:43 10° N 05:05:46 63° WNW 05:10:53 10° SSW
ATLAS CENTAUR R/B 3.3 05:02:48 10° SSW 05:06:53 37° SE 05:11:14 10° ENE
Meteor 1-15 Rocket 4.5 05:02:29 10° N 05:08:17 81° E 05:14:16 10° S
Cosmos 1607 4.1 05:02:13 10° NNW 05:08:35 88° ENE 05:15:04 10° SSE
ATLAS 3B R/B 2.8 05:02:36 11° NW 05:08:41 52° SW 05:15:10 10° SSE
Cosmos 2237 Rocket 2.7 05:03:26 10° N 05:08:59 63° ENE 05:14:37 10° SSE
Cosmos 923 Rocket 4.0 05:06:46 10° NNW 05:12:02 71° WSW 05:17:22 10° SSE
COSMOS 2428 3.3 05:08:25 10° NW 05:13:44 39° WSW 05:19:07 10° S
ASTRO E2 3.8 05:12:44 11° WNW 05:16:09 32° N 05:19:48 10° ENE
Cosmos 773 Rocket 4.3 05:11:40 10° NW 05:16:36 46° WSW 05:21:36 10° S
Cosmos 1867 3.9 05:11:25 10° NW 05:16:37 48° SW 05:21:51 10° SSE
Cosmos 304 Rocket 4.4 05:12:12 10° NW 05:16:42 38° WSW 05:21:15 10° S
Iridium 4 Rocket 4.0 05:11:09 10° S 05:17:08 79° E 05:22:40 10° N
MOZ.5/SAFIR/RUBIN 5/SL-8 4.4 05:18:02 10° S 05:22:22 37° WSW 05:26:39 10° NW
Cosmos 1980 3.8 05:18:07 10° NNW 05:23:50 88° WSW 05:29:35 10° SSE
COSMOS 2455 3.6 05:23:41 10° WNW 05:29:09 35° SW 05:34:41 10° SSE
SL-16 R/B 3.8 05:26:11 10° N 05:31:26 40° ENE 05:36:43 10° SE
CZ-4C R/B 3.0 05:27:51 10° NW 05:35:37 64° SW 05:42:42 10° SSE
